EN

Hourly Weather Barnsley

Today, 25 January, Monday

Time Temperature Precipitation Wind Pressure Humidity
00:00 -2°C° 0 mm 2 mps 741 mmHg 67%
01:00 -2°C° 0 mm 2 mps 741 mmHg 66%
02:00 -2°C° 0 mm 2 mps 741 mmHg 66%
03:00 -2°C° 0 mm 3 mps 742 mmHg 66%
04:00 -1°C° 0 mm 3 mps 742 mmHg 73%
05:00 -1°C° 0 mm 3 mps 742 mmHg 80%
06:00 -2°C° 0 mm 4 mps 743 mmHg 87%
07:00 -1°C° 0 mm 3 mps 742 mmHg 88%
08:00 -1°C° 0 mm 3 mps 742 mmHg 86%
09:00 0°C° 0 mm 3 mps 743 mmHg 85%
10:00 0°C° 0 mm 4 mps 743 mmHg 84%
11:00 +1°C° 0 mm 4 mps 743 mmHg 83%
12:00 +2°C° 0 mm 5 mps 744 mmHg 83%
13:00 +2°C° 0 mm 5 mps 744 mmHg 83%
14:00 +2°C° 0 mm 5 mps 744 mmHg 83%
15:00 +2°C° 0 mm 5 mps 744 mmHg 83%
16:00 +1°C° 0 mm 5 mps 745 mmHg 85%
17:00 +1°C° 0 mm 4 mps 745 mmHg 87%
18:00 0°C° 0 mm 4 mps 746 mmHg 89%
19:00 0°C° 0 mm 4 mps 746 mmHg 90%
20:00 0°C° 0 mm 4 mps 746 mmHg 90%
21:00 0°C° 0 mm 4 mps 747 mmHg 90%
22:00 +1°C° 0 mm 3 mps 747 mmHg 91%
23:00 0°C° 0 mm 3 mps 747 mmHg 91%

Tomorrow, 26 January, Tuesday

Time Temperature Precipitation Wind Pressure Humidity
00:00 0°C° 0 mm 3 mps 748 mmHg 92%
01:00 0°C° 0 mm 3 mps 748 mmHg 93%
02:00 0°C° 0 mm 3 mps 748 mmHg 94%
03:00 0°C° 0 mm 3 mps 748 mmHg 94%
04:00 +1°C° 0 mm 2 mps 748 mmHg 94%
05:00 +1°C° 0 mm 2 mps 747 mmHg 93%
06:00 +1°C° 0 mm 2 mps 747 mmHg 93%
07:00 +1°C° 0 mm 2 mps 747 mmHg 91%
08:00 +1°C° 0 mm 2 mps 746 mmHg 89%
09:00 0°C° 0 mm 3 mps 746 mmHg 87%
10:00 0°C° 1 mm 3 mps 745 mmHg 90%
11:00 0°C° 1 mm 4 mps 744 mmHg 93%
12:00 0°C° 1 mm 4 mps 743 mmHg 97%
13:00 0°C° 1.7 mm 4 mps 742 mmHg 97%
14:00 +1°C° 1.7 mm 4 mps 741 mmHg 97%
15:00 +3°C° 1.7 mm 4 mps 740 mmHg 97%
16:00 +3°C° 0.1 mm 5 mps 740 mmHg 94%
17:00 +4°C° 0.1 mm 6 mps 740 mmHg 92%
18:00 +5°C° 0.1 mm 7 mps 740 mmHg 89%
19:00 +4°C° 0 mm 7 mps 741 mmHg 88%
20:00 +4°C° 0 mm 7 mps 742 mmHg 87%
21:00 +4°C° 0 mm 7 mps 742 mmHg 86%
22:00 +3°C° 0 mm 7 mps 743 mmHg 87%
23:00 +3°C° 0 mm 6 mps 744 mmHg 88%

Day after tomorrow, 27 January, Wednesday

Time Temperature Precipitation Wind Pressure Humidity
00:00 +3°C° 0 mm 6 mps 745 mmHg 89%
01:00 +3°C° 0 mm 6 mps 745 mmHg 89%
02:00 +3°C° 0 mm 6 mps 746 mmHg 89%
03:00 +3°C° 0 mm 6 mps 746 mmHg 89%
04:00 +3°C° 0 mm 5 mps 746 mmHg 90%
05:00 +3°C° 0 mm 5 mps 747 mmHg 91%
06:00 +4°C° 0 mm 4 mps 747 mmHg 91%
07:00 +4°C° 0 mm 4 mps 747 mmHg 91%
08:00 +4°C° 0 mm 4 mps 747 mmHg 91%
09:00 +4°C° 0 mm 3 mps 747 mmHg 90%
10:00 +5°C° 0 mm 4 mps 747 mmHg 89%
11:00 +6°C° 0 mm 4 mps 747 mmHg 87%
12:00 +7°C° 0 mm 5 mps 747 mmHg 85%
13:00 +7°C° 0 mm 5 mps 746 mmHg 87%
14:00 +7°C° 0 mm 5 mps 745 mmHg 88%
15:00 +8°C° 0 mm 5 mps 744 mmHg 89%
16:00 +8°C° 0.4 mm 5 mps 744 mmHg 91%
17:00 +8°C° 0.4 mm 5 mps 743 mmHg 92%
18:00 +8°C° 0.4 mm 6 mps 742 mmHg 94%
19:00 +8°C° 1 mm 6 mps 741 mmHg 94%
20:00 +8°C° 1 mm 5 mps 740 mmHg 94%
21:00 +9°C° 1 mm 5 mps 739 mmHg 95%
22:00 +9°C° 0.9 mm 5 mps 738 mmHg 95%
23:00 +9°C° 0.9 mm 5 mps 737 mmHg 95%

28 January, Thursday

Time Temperature Precipitation Wind Pressure Humidity
00:00 +9°C° 0.9 mm 5 mps 735 mmHg 95%
01:00 +9°C° 0.2 mm 5 mps 734 mmHg 94%
02:00 +9°C° 0.2 mm 5 mps 733 mmHg 93%
03:00 +8°C° 0.2 mm 4 mps 732 mmHg 92%
04:00 +8°C° 0.1 mm 5 mps 732 mmHg 90%
05:00 +8°C° 0.1 mm 6 mps 732 mmHg 89%
06:00 +8°C° 0.1 mm 6 mps 732 mmHg 88%
07:00 +8°C° 0.7 mm 7 mps 733 mmHg 87%
08:00 +7°C° 0.7 mm 9 mps 734 mmHg 86%
09:00 +6°C° 0.7 mm 10 mps 735 mmHg 85%
10:00 +6°C° 0.5 mm 10 mps 736 mmHg 83%
11:00 +6°C° 0.5 mm 10 mps 737 mmHg 81%
12:00 +6°C° 0.5 mm 11 mps 738 mmHg 79%
13:00 +6°C° 0 mm 10 mps 739 mmHg 77%
14:00 +6°C° 0 mm 9 mps 740 mmHg 75%
15:00 +6°C° 0 mm 8 mps 741 mmHg 73%
16:00 +5°C° 0 mm 7 mps 741 mmHg 74%
17:00 +5°C° 0 mm 6 mps 742 mmHg 76%
18:00 +5°C° 0 mm 5 mps 742 mmHg 77%

29 January, Friday

Time Temperature Precipitation Wind Pressure Humidity

30 January, Saturday

Time Temperature Precipitation Wind Pressure Humidity
Show more

We Need Your Consent

Meteoprog and our Service Providers may store and access personal data such as cookies, device identifiers or other similar technologies on your device and process such data to personalise content and ads, as well as provide social media features and to analyse the traffic.

  • Store and/or access information on your device

    Cookies, device identifiers or other information can be stored or accessed on your device for the purposes indicated above.

  • Personalised ads and content, ad and content measurement, audience insights, and products development

    Ads and content can be personalised based on a profile. More data can be added to better personalise ads and content. Ad and content performance can be measured. Insights about the audience who saw the ads and content can be derived. Such data can be used to develop or improve user’s experience, systems and software.

By clicking ‘I Agree’ you will allow the use of indicated cookies, device identifiers, web beacons or other similar technologies. Your settings can be changed in the browser on your device.

For certain purposes, legitimate interests may be relied on, rather than consent. You can read more about this in our Privacy and Cookie Policy.